Powrót do katalogu

FENGYUN 1C DEB

AktywnySSO
NORAD 31752·DEBRIS·🇨🇳 China

Wystrzelony May 10, 1999 z Taiyuan Satellite Launch Center

Loading…

Następne Przeloty (najbliższe 24 godziny)

TLE

ŚwieżeSource: Space-Track

Epoka: Sep 11, 2026, 11:04 UTC

1 31752U 99025CFB 26254.46131401  .00001323  00000-0  61494-3 0  9998
2 31752  98.9583 324.8026 0350873 305.1154  51.7582 13.94582436973903

Śledź FENGYUN 1C DEB w czasie rzeczywistym z AllMySat

Download on the App Store